Duluth, MN

9:53 AM CDT on October 20, 2017 (GMT -0500)
Duluth International

Weather History for KDLH - January, 2013

Change the Weather History Date:

Tuesday, January 8, 2013

  Actual Average Record
Temperature  
Mean Temperature 23 °F 10 °F  
Max Temperature 33 °F 19 °F 48 °F (2003)
Min Temperature 13 °F 2 °F -31 °F (1974)
Degree Days  
Heating Degree Days 42 55  
Month to date heating degree days 373 437  
Since 1 July heating degree days 3845 4206  
Cooling Degree Days 0 0  
Month to date cooling degree days 0 0  
Year to date cooling degree days 0 0  
Moisture  
Dew Point 20 °F    
Average Humidity 82    
Maximum Humidity 92    
Minimum Humidity 72    
Precipitation  
Precipitation T in 0.03 in 0.69 in (1969)
Month to date precipitation T 0.28  
Year to date precipitation T 0.28  
Snow  
Snow T in 0.70 in 9.90 in (1969)
Month to date snowfall 0.3 5.4  
Since 1 July snowfall 24.8 39.2  
Snow Depth 5.00 in    
Sea Level Pressure  
Sea Level Pressure 29.85 in    
Wind  
Wind Speed 8 mph (South)    
Max Wind Speed 21 mph    
Max Gust Speed 25 mph    
Visibility 9 miles    
Events      
T = Trace of Precipitation, MM = Missing Value Source: NWS Daily Summary

Daily Weather History Graph

Daily Weather History Graph

Search for Another Location

Airport or City:

Trip Planner

Search our weather history database for the weather conditions in past years. The results will help you decide how hot, cold, wet, or windy it might be!

Date:

Astronomy

Jan. 08, 2013 Rise Set
Actual Time 7:52 AM CST 4:38 PM CST
Civil Twilight 7:18 AM CST 5:13 PM CST
Nautical Twilight 6:39 AM CST 5:51 PM CST
Astronomical Twilight 6:03 AM CST 6:28 PM CST
Moon 4:25 AM CST (1/8) 1:42 PM CST (1/8)
Length of Visible Light 9h 55m
Length of Day
8h 46m
Waning Crescent, 13% of the Moon is Illuminated
Jan 8
Waning Crescent
Jan 11
New
Jan 18
First Quarter
Jan 26
Full
Feb 3
Last Quarter

Hourly Weather History & Observations

Time (CST) Temp. Windchill Dew Point Humidity Pressure Visibility Wind Dir Wind Speed Gust Speed Precip Events Conditions
12:55 AM 21.0 °F 14.6 °F 17.1 °F 85% 29.94 in 10.0 mi WSW 4.6 mph - N/A   Clear
1:55 AM 19.0 °F 10.0 °F 16.0 °F 88% 29.95 in 10.0 mi WSW 6.9 mph - N/A   Clear
2:55 AM 19.0 °F 11.1 °F 16.0 °F 88% 29.96 in 10.0 mi WSW 5.8 mph - N/A   Clear
3:55 AM 19.0 °F 13.9 °F 16.0 °F 88% 29.96 in 10.0 mi WSW 3.5 mph - N/A   Clear
4:55 AM 19.0 °F 12.3 °F 16.0 °F 88% 29.96 in 10.0 mi WSW 4.6 mph - N/A   Clear
5:55 AM 16.0 °F - 10.9 °F 81% 29.97 in 10.0 mi Calm Calm - N/A   Clear
6:55 AM 18.0 °F - 15.1 °F 88% 29.98 in 10.0 mi Calm Calm - N/A   Clear
7:22 AM 15.8 °F - 12.2 °F 86% 29.90 in 7.0 mi Calm Calm - N/A   Scattered Clouds
7:55 AM 14.0 °F - 10.0 °F 84% 29.99 in 4.0 mi Calm Calm - N/A   Scattered Clouds
8:55 AM 15.1 °F 9.4 °F 10.9 °F 84% 30.00 in 7.0 mi SSE 3.5 mph - N/A   Partly Cloudy
9:02 AM 15.8 °F 10.2 °F 12.2 °F 86% 29.92 in 1.0 mi SSE 3.5 mph - N/A   Clear
9:05 AM 15.8 °F 10.2 °F 12.2 °F 86% 29.92 in 7.0 mi SSE 3.5 mph - N/A   Clear
9:55 AM 19.0 °F 13.9 °F 15.1 °F 85% 30.00 in 10.0 mi SSE 3.5 mph - N/A   Clear
10:55 AM 25.0 °F 18.1 °F 21.0 °F 85% 29.96 in 10.0 mi SSE 5.8 mph - N/A   Partly Cloudy
11:55 AM 26.1 °F 19.4 °F 21.0 °F 81% 29.94 in 10.0 mi SE 5.8 mph - N/A   Partly Cloudy
12:55 PM 28.9 °F 21.1 °F 21.9 °F 75% 29.91 in 10.0 mi SSE 8.1 mph - N/A   Mostly Cloudy
1:55 PM 28.0 °F 19.3 °F 21.9 °F 78% 29.86 in 9.0 mi East 9.2 mph - N/A   Mostly Cloudy
2:55 PM 28.0 °F 18.6 °F 21.9 °F 78% 29.83 in 9.0 mi East 10.4 mph - N/A   Mostly Cloudy
3:55 PM 28.9 °F 16.9 °F 24.1 °F 82% 29.80 in 9.0 mi East 17.3 mph - N/A   Mostly Cloudy
4:19 PM 28.4 °F 15.8 °F 26.6 °F 93% 29.71 in 7.0 mi East 18.4 mph - N/A   Mostly Cloudy
4:34 PM 28.4 °F 17.5 °F 26.6 °F 93% 29.71 in 6.0 mi ESE 13.8 mph - N/A   Mostly Cloudy
4:55 PM 30.0 °F 20.5 °F 26.1 °F 85% 29.78 in 9.0 mi ESE 11.5 mph - N/A   Overcast
5:55 PM 32.0 °F 24.8 °F 26.1 °F 79% 29.76 in 10.0 mi SE 8.1 mph - N/A   Mostly Cloudy
6:02 PM 32.0 °F 25.6 °F 24.8 °F 75% 29.69 in 10.0 mi SSE 6.9 mph - N/A   Overcast
6:55 PM 32.0 °F 22.1 °F 25.0 °F 75% 29.75 in 10.0 mi South 13.8 mph - N/A   Overcast
7:50 PM 32.0 °F 22.5 °F 24.8 °F 75% 29.66 in 10.0 mi SSW 12.7 mph 19.6 mph 0.00 in   Overcast
7:55 PM 30.9 °F 20.7 °F 25.0 °F 79% 29.73 in 10.0 mi SSW 13.8 mph - 0.00 in   Overcast
8:55 PM 30.9 °F 20.2 °F 25.0 °F 79% 29.73 in 7.0 mi WSW 15.0 mph - N/A   Overcast
9:55 PM 30.9 °F 21.2 °F 25.0 °F 79% 29.73 in 7.0 mi WSW 12.7 mph - N/A   Overcast
10:55 PM 30.9 °F 19.4 °F 25.0 °F 79% 29.74 in 7.0 mi West 17.3 mph - N/A   Overcast
11:30 PM 30.2 °F 19.3 °F 24.8 °F 80% 29.69 in 8.0 mi WSW 15.0 mph - N/A   Overcast
11:55 PM 30.9 °F 20.2 °F 25.0 °F 79% 29.75 in 8.0 mi WSW 15.0 mph - N/A   Overcast